STARLINK-11569, 62910

Orbit data source: Space-Track

STARLINK-11569, 62910 is a payload satellite owned by SpaceX/Seattle (US) in LEO that was launched on Sat, 08 Feb 2025 UTC via an FALCON 9 launch vehicle from the Air Force Eastern Test Range (AFETR). Payload-class satellites include a variety of spacecraft equipped with specific instruments for various scientific and technological missions. These include communications satellites like Starlink; space stations such as the ISS; scientific satellites like the Hubble; Earth observation satellites from companies like Planet Labs, Umbra, and HawkEye 360; GPS; miniature CubeSats for education and research; and military/defense satellites.

Loading next visibility...
Identifier
62910, 2025-027D
Orbit
LEO
Last TLE update
8 hours ago
Origin
Manufacturer
SpaceX/Seattle
Mission
Operational Commercial Communications
Bus & Motor
STARLINK V2M, Unknown motor
Mass
730 kg wet, ~700 kg dry
Launch date (UTC)
2025-02-08 (3 months ago)
Launch vehicle
FALCON 9
Launch site
Air Force Eastern Test Range (AFETR)
Object type
Payload
Rocket body
Debris
Shape & HBR
Box + 2 Pan, 29 m
Radar Cross Section
36.964 m², Large (>1 m²)

Expand to show TLE details & history

TLE from 8 hours ago
0 STARLINK-11569
1 62910U 25027D   25128.93723157  .00000794  00000-0  96844-5 0  9995
2 62910  43.0058  24.5067 0001103 290.2470  69.8279 15.70832356 15224
Epoch: 2025-05-08T22:29Z
Definitive object data (Epoch: 2025-05-08T22:29:36.807Z)
Latitude
-0.00003°
Longitude
-179.89726°
Altitude
356.033 km
Speed
7.698 km/s
True Right ascension
01h 38m 01s
True Declination
0° 00' 00"
Sunlit
Object was in daylight at TLE epoch
Visualization TLE readout
Latitude
8.48832°
Longitude
-172.67215°
Altitude
355.453 km
Speed
7.699 km/s
Apparent Right ascension
02h 12m 11s
Apparent Declination
-14° 56' 24"
Sunlit
Object is in daylight
Visualization observer readout
Local Sidereal Time
14:19:21
Azimuth
4.094° NNE
Elevation
-64.975°
Doppler factor
1
Orbital elements
Apogee altitude
359.241 km
Perigee altitude
357.754 km
Semi-major axis
6,736.634 km
Eccentricity
0.0001103
Inclination
43.0058°
RAAN
24.5067°
Arg. of periapsis
290.247°
True anomaly
69.83976°
Mean anomaly
69.8279°
Eccentric anomaly
69.83383°
Mean motion
3.92535 °/min
BSTAR
0.0000096844
Orbital period
91.71 mins
Loading maneuver chart data...
Loading SW <> Apogee altitude chart data...
Loading historical data...
Loading historical data...
Loading historical data...
Loading historical data...
Loading historical data...
Loading historical data...
Loading historical data...

STARLINK-11569 Visibility forecast

Observer location: undefined°, undefined°

Span
Click to sort rows by Start time (UTC) header in descending order
Start Az.
Max El. time (UTC)
Max El. Az.
Max El.
End time (UTC)
End Az.
4 mins2025-05-09 20:03:34.194Z208.065° SW2025-05-09 20:05:34.194Z165.205° S23.142°2025-05-09 20:07:34.194Z102.746° ESE
4 mins2025-05-09 21:40:34.194Z269.403° W2025-05-09 21:41:34.194Z298.801° NW40.298°2025-05-09 21:44:34.194Z68.689° E
4 mins2025-05-09 23:16:34.194Z298.644° NW2025-05-09 23:18:34.194Z24.031° NE33.612°2025-05-09 23:20:34.194Z73.994° E
4 mins2025-05-10 00:52:34.194Z285.576° WNW2025-05-10 00:54:34.194Z171.709° S44.433°2025-05-10 00:56:34.194Z114.333° SE
|